User: anonymous   Login
Location: Austin
(30.3000°N, 97.7500°W)
Time: 21:52:46
(UTC-05:00)
Language:

Cosmos 2233 Rocket - Orbit

View from above orbital plane
View from above orbital plane
View from above satellite
View from above satellite

Ground track
Ground track

The orbit is defined by the following mean orbital elements,

1 22488U          26075.89109693 +.00000000 +00000-0 -92625-5 0 00002
2 22488  82.9422 220.6371 0024020 270.7974 254.4928 13.77994752    06
Epoch (UTC): 16 March 2026 21:23:10
Eccentricity: 0.0024020
inclination: 82.9422°
perigee height: 953 km
apogee height: 989 km
right ascension of ascending node: 220.6371°
argument of perigee: 270.7974°
revolutions per day: 13.77994752
mean anomaly at epoch: 254.4928°

The dashed part of the orbit path shows where the satellite is in the earth's shadow,  

DLR